This is the latest recevied weather packets stored in our database for station/object SV9TNF-1. If no packets are shown the sender has not sent any weather packets the latest 10 day(s).
| Time | Temp. | Humidity | Pressure | Rain* | Wind** | Luminosity | Snow |
|---|---|---|---|---|---|---|---|
| 1777849508 | 12.22° C | 67% | 1006.4 hPa | 0 mm | 1.79 m/s, 125° | - | - |
| 1777849208 | 12.22° C | 67% | 1006.8 hPa | 0 mm | 2.68 m/s, 137° | - | - |
| 1777848907 | 12.22° C | 67% | 1006.8 hPa | 0 mm | 1.34 m/s, 134° | - | - |
| 1777848607 | 12.78° C | 66% | 1006.8 hPa | 0 mm | 1.34 m/s, 76° | - | - |
| 1777848307 | 12.78° C | 65% | 1006.8 hPa | 0 mm | 8.94 m/s, 343° | - | - |
| 1777848007 | 12.78° C | 66% | 1006.8 hPa | 1.27 mm | 4.92 m/s, 330° | - | - |
| 1777847707 | 12.78° C | 68% | 1006.8 hPa | 1.27 mm | 10.28 m/s, 335° | - | - |
| 1777847407 | 12.22° C | 68% | 1006.8 hPa | 0 mm | 8.05 m/s, 87° | - | - |
| 1777847107 | 12.22° C | 67% | 1006.8 hPa | 0 mm | 4.92 m/s, 123° | - | - |
| 1777846807 | 11.67° C | 65% | 1006.8 hPa | 0 mm | 4.02 m/s, 266° | - | - |
| 1777846507 | 11.67° C | 64% | 1006.8 hPa | 0 mm | 1.79 m/s, 131° | - | - |
| 1777846207 | 11.67° C | 70% | 1006.8 hPa | 0 mm | 0.89 m/s, 153° | - | - |
| 1777845906 | 11.67° C | 72% | 1006.8 hPa | 0 mm | 3.13 m/s, 157° | - | - |
| 1777845607 | 11.67° C | 68% | 1006.4 hPa | 0 mm | 7.6 m/s, 133° | - | - |
| 1777845306 | 11.67° C | 72% | 1006.4 hPa | 0 mm | 7.15 m/s, 338° | - | - |
| 1777845006 | 11.11° C | 77% | 1006.4 hPa | 0 mm | 5.81 m/s, 56° | - | - |
| 1777844706 | 10.56° C | 80% | 1006.4 hPa | 0 mm | 3.58 m/s, 196° | - | - |
| 1777844406 | 10.56° C | 82% | 1006.4 hPa | 0 mm | 4.02 m/s, 172° | - | - |
| 1777844106 | 10.56° C | 83% | 1006.4 hPa | 0 mm | 5.81 m/s, 324° | - | - |
| 1777843806 | 10.56° C | 83% | 1006.4 hPa | 0 mm | 8.05 m/s, 314° | - | - |
| 1777843506 | 10.56° C | 82% | 1006.4 hPa | 0 mm | 3.58 m/s, 270° | - | - |
| 1777843206 | 10.56° C | 81% | 1006.8 hPa | 0 mm | 5.36 m/s, 196° | - | - |
| 1777842905 | 10.56° C | 81% | 1006.8 hPa | 0 mm | 3.13 m/s, 187° | - | - |
| 1777842606 | 10.56° C | 80% | 1006.8 hPa | 0 mm | 2.68 m/s, 251° | - | - |
| 1777842306 | 10.56° C | 82% | 1006.8 hPa | 0 mm | 3.58 m/s, 262° | - | - |
* Rain latest hour (hover to see other rain measurements)
** Current wind speed in m/s (hover to see current wind gust speed)